Location: Eaton
(41.3139°N, 82.0207°W)
Time: 13:03:02
(UTC+00:00)

ATLAS 3B R/B - Pass Details

Date: 17 June 2021
Orbit: 1003 x 1191 km, 63.8° (Epoch: 21 July)

Event Time Altitude Azimuth Distance (km) Brightness Sun altitude
Exits shadow 04:26:16 - 235° (SW) 3,603 5.3 -23.7°
Reaches altitude 10° 04:28:38 10° 240° (WSW) 2,780 4.7 -23.8°
Maximum altitude 04:34:51 45° 313° (NW) 1,362 3.6 -24.1°
Drops below altitude 10° 04:41:18 10° 25° (NNE) 2,878 5.6 -24.4°
Sets 04:44:08 0° 32° (NNE) 3,863 6.3 -24.5°
